This demonstration page uses our WeatherBlox Daily Observations layout. Learn more.

Left ArrowRight Arrow

Hourly Observations for June 6, 2016

Temp ( °F °C ) Dew Point ( °F °C ) Humidity (%) Winds ( mph kmh ) Pressure ( in mb ) Visibility ( mi km ) Precip ( " mm )
12:53 am 00:53 Clear 85 29.4 51 10.6 31 31 NE 7 11 29.73 1007 10 16 0.00 0.00
1:53 am 01:53 Clear 80 26.7 52 11.1 38 38 N 3 6 29.73 1007 10 16 0.00 0.00
2:53 am 02:53 Clear 80 26.7 53 11.7 39 39 NNW 5 7 29.72 1007 10 16 0.00 0.00
3:53 am 03:53 Clear 76 24.4 55 12.8 48 48 NW 5 7 29.72 1007 10 16 0.00 0.00
4:53 am 04:53 Clear 76 24.4 55 12.8 48 48 NNW 6 9 29.72 1006 10 16 0.00 0.00
5:53 am 05:53 Sunny 73 22.8 56 13.3 55 55 Calm 29.72 1007 10 16 0.00 0.00
6:53 am 06:53 Sunny 77 25 57 14 51 51 N 3 6 N/A 2 3 0.00 0.00
7:53 am 07:53 Sunny 82 27.8 59 15 46 46 NNW 3 6 29.72 1007 10 16 0.00 0.00
8:53 am 08:53 Sunny 86 30 56 13.3 36 36 N 6 9 29.72 1007 10 16 0.00 0.00
9:53 am 09:53 Sunny 92 33.3 54 12.2 28 28 NNW 7 11 29.71 1006 10 16 0.00 0.00
10:53 am 10:53 Sunny 96 35.6 54 12.2 24 24 NNE 14 22 29.68 1005 10 16 0.00 0.00
11:53 am 11:53 Sunny 98 36.7 55 12.8 24 24 N 9 15 29.67 1005 10 16 0.00 0.00
12:53 pm 12:53 Sunny 100 37.8 54 12.2 21 21 NW 6 9 29.65 1004 10 16 0.00 0.00
1:53 pm 13:53 Sunny 101 38.3 53 11.7 20 20 S 7 11 29.63 1004 10 16 0.00 0.00
2:53 pm 14:53 Sunny 103 39.4 50 10 17 17 W 6 9 29.62 1003 10 16 0.00 0.00
3:53 pm 15:53 Sunny 105 40.6 46 7.8 14 14 WSW 8 13 29.60 1003 10 16 0.00 0.00
4:53 pm 16:53 Sunny 104 40 45 7.2 13 13 SSW 8 13 29.59 1002 10 16 0.00 0.00
5:53 pm 17:53 Sunny 103 39.4 54 12.2 20 20 S 13 20 29.58 1002 10 16 0.00 0.00
6:53 pm 18:53 Sunny 100 37.8 56 13.3 23 23 SSW 14 22 29.59 1002 10 16 0.00 0.00
7:53 pm 19:53 Sunny 94 34.4 60 15.6 32 32 S 15 24 29.61 1003 10 16 0.00 0.00
8:53 pm 20:53 Clear 90 32.2 60 15.6 37 37 S 8 13 29.64 1004 10 16 0.00 0.00
9:53 pm 21:53 Clear 89 31.7 60 15.6 38 38 SSW 5 7 29.67 1005 10 16 0.00 0.00
10:53 pm 22:53 Clear 86 30 61 16.1 43 43 SW 5 7 29.70 1006 10 16 0.00 0.00
11:53 pm 23:53 Clear 82 27.8 60 15.6 47 47 W 6 9 29.72 1006 10 16 0.00 0.00

Powered by AerisWeather